Regional Weather Roundup
Issued by NWS

Current Version | Previous Version | Text Only | Print | Product List | Glossary On
Versions: 1 2 3 4 5 6 7 8 9 10 11 12 13 14 15 16 17 18 19 20 21 22 23 24 25 26 27 28 29 30 31 32 33 34 35 36 37 38 39 40 41 42 43 44 45 46 47 48 49 50
000
ASUS45 KABQ 260701
RWRNM
WEATHER ROUNDUP FOR NEW MEXICO
NATIONAL WEATHER SERVICE ALBUQUERQUE NM
100 AM MDT SUN OCT 26 2014

NOTE: "FAIR" MEANS FEW OR NO CLOUDS BELOW 12,000 FEET AGL WITH NO
       SIGNIFICANT WEATHER OR OBSTRUCTIONS TO VISION.

      THIS PRODUCT IS RELEASED AS TWO VERSIONS.  ONE VERSION NEAR
      THE TOP OF THE HOUR CONTAINING PRELIMINARY DATA FROM ALBUQUERQUE
      AND OTHER STATIONS.  A FINAL VERSION WITH ADDITIONAL DATA IS
      ISSUED ABOUT 10 MINUTES AFTER THE HOUR.

NMZ501-503-504-510>518-260800-
NORTHWEST PLATEAU/NORTHCENTRAL MOUNTAINS

CITY           SKY/WX    TMP DP  RH WIND       PRES   REMARKS
FARMINGTON     CLEAR     50  33  52 NE6       30.15F
LOS ALAMOS     CLEAR     60  32  34 W7        30.27F
SANTA FE       CLEAR     57  30  35 NW5       30.21F
TAOS           CLEAR     43  21  42 NE6       30.26F
ANGEL FIRE     FAIR      53  24  32 W8        30.30F

$$
NMZ402-403-502-505>509-260800-
WESTCENTRAL MOUNTAINS/SOUTHWEST MOUNTAINS

CITY           SKY/WX    TMP DP  RH WIND       PRES   REMARKS
GALLUP         CLEAR     49  37  63 SE3       30.24F
GRANTS         CLEAR     43  30  61 CALM      30.27F
SILVER CITY    PTCLDY    57  41  54 N7        30.22F

$$
NMZ407-409-411-412-260800-
SOUTHERN DESERTS

CITY           SKY/WX    TMP DP  RH WIND       PRES   REMARKS
LORDSBURG      FAIR      55  45  67 S7        30.14F
DEMING         CLEAR     54  43  66 N3        30.15F
HOLLOMAN AFB   PTCLDY    56  44  64 E5        30.11F
T OR C         CLEAR     62  41  46 CALM      30.16F

$$
NMZ519>523-260800-
CENTRAL VALLEYS/CENTRAL HIGHLANDS

CITY           SKY/WX    TMP DP  RH WIND       PRES   REMARKS
ALBUQUERQUE    PTCLDY    56  36  47 SE9       30.19S
DOUBLE EAGLE   CLEAR     57  34  42 W12       30.21S
MORIARTY ARPT  FAIR      41  30  65 S3        30.22F
CLINES CORNERS CLEAR     54  34  46 W15       30.23F
BELEN          NOT AVBL
SOCORRO        FAIR      57  43  59 SW6       30.17S

$$
NMZ524>526-539-540-260800-
SOUTHCENTRAL MOUNTAINS

CITY           SKY/WX    TMP DP  RH WIND       PRES   REMARKS
RUIDOSO        CLEAR     57  37  47 W8        30.28F

$$
NMZ527>531-260800-
NORTHEAST HIGHLANDS/NORTHEAST PLAINS

CITY           SKY/WX    TMP DP  RH WIND       PRES   REMARKS
LAS VEGAS      CLEAR     54  30  40 S13       30.19F
RATON          CLEAR     46  24  42 NE3       30.11F
CLAYTON        CLEAR     56  32  40 SW10      30.02F

$$
NMZ532>537-260800-
EASTCENTRAL PLAINS

CITY           SKY/WX    TMP DP  RH WIND       PRES   REMARKS
TUCUMCARI      CLEAR     63  47  55 W7        30.04F
CANNON AFB     CLEAR     59  45  60 W6        30.09F
CLOVIS AIRPORT CLEAR     55  43  62 SW9       30.11F

$$
NMZ028-029-538-260800-
SOUTHEAST PLAINS

CITY           SKY/WX    TMP DP  RH WIND       PRES   REMARKS
ROSWELL        CLEAR     57  47  69 W6        30.07F
CARLSBAD       CLEAR     57  48  72 S3        30.06F
HOBBS          CLEAR     59  50  72 S9        30.11S


$$



USA.gov is the U.S. government's official web portal to all federal, state and local government web resources and services.